K5LRY-13 Weather Reports


time (UTC)temp
C
wind
direction
speed
KPH
gust
KPH
rain 1hr
cm
rain 24hr
cm
rain mn
cm
humidity
%
barometer
mb
20260906230337 29 230 9.7 20.9 0.00 0.00 0.00 16 1030.5
20260906224837 29 264 6.4 19.3 0.00 0.00 0.00 16 1030.6
20260906223324 29 259 8.0 16.1 0.00 0.00 0.00 16 1030.7
20260906221817 30 246 9.7 22.5 0.00 0.00 0.00 15 1030.7
20260906220314 29 256 6.4 24.1 0.00 0.00 0.00 17 1030.9
20260906214829 28 212 4.8 16.1 0.00 0.00 0.00 17 1031.2
20260906213344 28 228 3.2 17.7 0.00 0.00 0.00 16 1031.5
20260906211815 30 251 6.4 16.1 0.00 0.00 0.00 15 1031.6
20260906210328 30 235 3.2 12.9 0.00 0.00 0.00 16 1031.6
20260906204843 28 261 1.6 16.1 0.00 0.00 0.00 17 1031.9
20260906203338 28 255 8.0 17.7 0.00 0.00 0.00 17 1031.8
20260906201829 27 214 4.8 14.5 0.00 0.00 0.00 18 1032.1
20260906200330 27 231 4.8 14.5 0.00 0.00 0.00 18 1032.1
20260906194817 27 200 8.0 17.7 0.00 0.00 0.00 18 1032.2
20260906193338 27 181 8.0 14.5 0.00 0.00 0.00 18 1032.1
20260906191824 27 241 1.6 14.5 0.00 0.00 0.00 19 1032.6
20260906190318 27 181 4.8 19.3 0.00 0.00 0.00 18 1032.9
20260906184812 26 204 3.2 16.1 0.00 0.00 0.00 19 1033.0
20260906183327 26 238 1.6 17.7 0.00 0.00 0.00 22 1033.1
20260906181819 26 268 4.8 17.7 0.00 0.00 0.00 20 1033.6
20260906180334 26 209 6.4 17.7 0.00 0.00 0.00 20 1033.6
20260906174828 26 287 1.6 19.3 0.00 0.00 0.00 20 1033.6
20260906173322 25 215 4.8 12.9 0.00 0.00 0.00 20 1033.6
20260906171814 25 224 4.8 11.3 0.00 0.00 0.00 21 1033.8
20260906170328 25 253 4.8 20.9 0.00 0.00 0.00 22 1033.7
20260906164843 23 241 3.2 17.7 0.00 0.00 0.00 21 1033.4
20260906163316 23 268 4.8 16.1 0.00 0.00 0.00 21 1033.3
20260906161830 23 157 6.4 12.9 0.00 0.00 0.00 22 1033.3
20260906160345 22 237 3.2 14.5 0.00 0.00 0.00 24 1033.3
20260906154840 21 216 1.6 11.3 0.00 0.00 0.00 25 1033.1
20260906153314 18 36 3.2 6.4 0.00 0.00 0.00 28 1033.2
20260906151828 17 39 3.2 11.3 0.00 0.00 0.00 34 1033.1
20260906150322 16 39 0.0 3.2 0.00 0.00 0.00 39 1033.2
20260906144816 15 39 0.0 8.0 0.00 0.00 0.00 45 1033.2
20260906143351 14 41 4.8 9.7 0.00 0.00 0.00 49 1033.2
20260906141823 12 32 4.8 14.5 0.00 0.00 0.00 54 1033.0
20260906140339 10 27 0.0 1.6 0.00 0.00 0.00 66 1033.0
20260906134815 9 26 0.0 0.0 0.00 0.00 0.00 68 1032.9
20260906133330 9 27 0.0 0.0 0.00 0.00 0.00 66 1032.7
20260906131823 9 26 0.0 0.0 0.00 0.00 0.00 64 1032.4
20260906130336 10 27 0.0 4.8 0.00 0.00 0.00 62 1032.2
20260906124830 10 26 3.2 6.4 0.00 0.00 0.00 61 1032.1
20260906123325 10 32 3.2 12.9 0.00 0.00 0.00 62 1032.1
20260906121818 11 32 0.0 6.4 0.00 0.00 0.00 60 1031.9
20260906120333 11 33 1.6 6.4 0.00 0.00 0.00 59 1032.0
20260906114826 11 30 3.2 9.7 0.00 0.00 0.00 60 1032.0
20260906113343 11 33 4.8 8.0 0.00 0.00 0.00 60 1031.9
20260906111835 12 33 0.0 8.0 0.00 0.00 0.00 58 1031.8
20260906110323 11 39 3.2 11.3 0.00 0.00 0.00 59 1032.0
20260906104816 11 23 4.8 8.0 0.00 0.00 0.00 58 1031.8
20260906103339 12 23 4.8 6.4 0.00 0.00 0.00 56 1031.7
20260906101851 12 23 8.0 14.5 0.00 0.00 0.00 56 1031.8
20260906100322 10 57 1.6 8.0 0.00 0.00 0.00 63 1031.8
20260906094815 10 185 0.0 3.2 0.00 0.00 0.00 64 1031.8
20260906093351 10 191 0.0 3.2 0.00 0.00 0.00 63 1031.9
20260906091822 10 192 0.0 3.2 0.00 0.00 0.00 63 1031.8
20260906090336 10 191 0.0 1.6 0.00 0.00 0.00 62 1031.9
20260906084830 10 191 0.0 4.8 0.00 0.00 0.00 61 1031.9
20260906083324 11 191 0.0 0.0 0.00 0.00 0.00 61 1032.0
20260906081817 11 191 0.0 3.2 0.00 0.00 0.00 60 1032.2
20260906080310 11 191 0.0 0.0 0.00 0.00 0.00 59 1032.2
20260906074825 11 191 0.0 0.0 0.00 0.00 0.00 59 1032.3
20260906073320 11 191 0.0 0.0 0.00 0.00 0.00 58 1032.4
20260906071833 11 191 0.0 0.0 0.00 0.00 0.00 59 1032.5
20260906070347 11 191 0.0 0.0 0.00 0.00 0.00 58 1032.4
20260906064821 11 191 0.0 0.0 0.00 0.00 0.00 56 1032.6
20260906063316 11 191 0.0 0.0 0.00 0.00 0.00 55 1032.6
20260906061829 12 191 0.0 0.0 0.00 0.00 0.00 56 1032.5
20260906060343 12 191 0.0 0.0 0.00 0.00 0.00 56 1032.4
20260906054837 12 191 0.0 0.0 0.00 0.00 0.00 56 1032.6
20260906053314 12 191 0.0 0.0 0.00 0.00 0.00 54 1032.6
20260906051827 13 191 0.0 0.0 0.00 0.00 0.00 53 1032.8
20260906050343 13 191 0.0 0.0 0.00 0.00 0.00 51 1032.8
20260906044816 14 191 0.0 0.0 0.00 0.00 0.00 49 1032.9
20260906043331 15 191 0.0 0.0 0.00 0.00 0.00 47 1032.9
20260906041825 16 191 0.0 1.6 0.00 0.00 0.00 45 1033.0
20260906040319 16 191 0.0 1.6 0.00 0.00 0.00 41 1033.0
20260906034813 17 191 0.0 3.2 0.00 0.00 0.00 39 1033.0
20260906033328 18 191 0.0 4.8 0.00 0.00 0.00 37 1033.1
20260906031842 18 191 0.0 4.8 0.00 0.00 0.00 35 1033.0
20260906030336 18 191 4.8 9.7 0.00 0.00 0.00 35 1032.7
20260906024830 19 191 6.4 14.5 0.00 0.00 0.00 35 1032.6
20260906023325 19 154 1.6 11.3 0.00 0.00 0.00 36 1032.3
20260906021816 19 228 8.0 17.7 0.00 0.00 0.00 37 1032.2
20260906020352 19 269 1.6 9.7 0.00 0.00 0.00 37 1032.3
20260906014825 20 270 0.0 1.6 0.00 0.00 0.00 35 1032.2
20260906013320 21 270 0.0 3.2 0.00 0.00 0.00 34 1032.1
20260906011812 22 270 0.0 3.2 0.00 0.00 0.00 30 1032.2
20260906010326 23 271 4.8 14.5 0.00 0.00 0.00 27 1032.4
20260906004820 23 273 1.6 17.7 0.00 0.00 0.00 27 1032.3
20260906003337 25 185 1.6 12.9 0.00 0.00 0.00 26 1032.1
20260906001828 25 261 6.4 12.9 0.00 0.00 0.00 25 1031.9
20260906000315 25 296 4.8 24.1 0.00 0.00 0.00 26 1032.0
20260905234836 25 255 6.4 16.1 0.00 0.00 0.00 25 1032.1
20260905233323 26 246 6.4 19.3 0.00 0.00 0.00 23 1031.9
20260905231816 26 232 4.8 20.9 0.00 0.00 0.00 25 1031.8